Location: Temple Hill
(37.3073°N, 88.6303°W)
Time: 16:18:47
(UTC+00:00)

Envisat - Pass Details

Date: 23 November 2020
Orbit: 764 x 766 km, 98.1° (Epoch: 20 January)

Event Time Altitude Azimuth Distance (km) Brightness Sun altitude
Rises 11:58:03 0° 10° (N) 3,240 6.1 -9.0°
Reaches altitude 10° 12:00:22 10° 9° (N) 2,310 5.4 -8.6°
Maximum altitude 12:05:26 74° 285° (WNW) 798 3.0 -7.7°
Drops below altitude 10° 12:10:29 10° 201° (SSW) 2,294 5.5 -6.7°
Sets 12:12:46 0° 199° (SSW) 3,215 6.3 -6.3°
